Location: Bratislava
(48.1500°N, 17.1170°E)
Time: 09:29:03
(UTC+02:00)

Envisat - Visible Passes

Search period start: 26 May 2017 00:00
Search period end: 05 June 2017 00:00
Orbit: 764 x 766 km, 98.2° (Epoch: 25 May)

Date Brightness Start Highest point End Pass type
(mag) Time Alt. Az. Time Alt. Az. Time Alt. Az.
26 May 4.8 21:41:33 10° SSW 21:45:58 29° W 21:50:25 10° NNW visible
28 May 5.4 22:08:25 10° SW 22:11:52 18° W 22:15:19 10° NW visible
29 May 4.4 21:30:09 10° SSW 21:34:48 36° W 21:39:30 10° NNW visible
30 May 5.8 22:37:00 10° W 22:37:52 10° W 22:38:43 10° WNW visible
31 May 5.2 21:56:44 10° SW 22:00:40 22° W 22:04:37 10° NW visible
01 Jun 4.1 21:18:49 10° S 21:23:40 45° W 21:28:33 10° NNW visible
02 Jun 5.6 22:24:13 10° WSW 22:26:37 13° W 22:29:01 10° WNW visible
03 Jun 4.9 21:45:11 10° SSW 21:49:28 27° W 21:53:47 10° NW visible
